McAllen, TX

12:38 AM CDT on May 28, 2018 (GMT -0500)
McAllen Miller International

Weather History for KMFE - October, 2013

Change the Weather History Date:

Tuesday, October 1, 2013

  Actual Average Record
Temperature  
Mean Temperature 86 °F 80 °F  
Max Temperature 94 °F 90 °F 101 °F (1986)
Min Temperature 77 °F 70 °F 53 °F (1992)
Degree Days  
Heating Degree Days 0 0  
Month to date heating degree days 0 0  
Since 1 July heating degree days 0 0  
Cooling Degree Days 21 15  
Month to date cooling degree days 21 15  
Year to date cooling degree days 3953 3814  
Growing Degree Days 36 (Base 50)    
Moisture  
Dew Point 75 °F    
Average Humidity 72    
Maximum Humidity 91    
Minimum Humidity 52    
Precipitation  
Precipitation 0.00 in 0.10 in 0.35 in (1965)
Month to date precipitation 0.00 0.10  
Year to date precipitation 12.16 18.14  
Sea Level Pressure  
Sea Level Pressure 29.85 in    
Wind  
Wind Speed 10 mph (SE)    
Max Wind Speed 20 mph    
Max Gust Speed 23 mph    
Visibility 10 miles    
Events      
T = Trace of Precipitation, MM = Missing Value Source: NWS Daily Summary

Daily Weather History Graph

Daily Weather History Graph

Search for Another Location

Airport or City:

Astronomy

Oct. 01, 2013 Rise Set
Actual Time 7:25 AM CDT 7:19 PM CDT
Civil Twilight 7:02 AM CDT 7:42 PM CDT
Nautical Twilight 6:35 AM CDT 8:08 PM CDT
Astronomical Twilight 6:08 AM CDT 8:35 PM CDT
Moon 4:17 AM CDT (10/1) 5:10 PM CDT (10/1)
Length of Visible Light 12h 39m
Length of Day
11h 53m
Waning Crescent, 12% of the Moon is Illuminated
Oct 1
Waning Crescent
Oct 4
New
Oct 11
First Quarter
Oct 18
Full
Oct 26
Last Quarter

Hourly Weather History & Observations

Time (CDT) Temp. Heat Index Dew Point Humidity Pressure Visibility Wind Dir Wind Speed Gust Speed Precip Events Conditions
12:53 AM 80.1 °F 85.1 °F 75.0 °F 85% 29.85 in 10.0 mi SSE 5.8 mph - N/A   Clear
1:53 AM 79.0 °F - 75.9 °F 90% 29.85 in 10.0 mi SSE 5.8 mph - N/A   Clear
2:53 AM 79.0 °F - 75.9 °F 90% 29.84 in 10.0 mi SSE 5.8 mph - N/A   Clear
3:53 AM 78.1 °F - 75.9 °F 93% 29.82 in 10.0 mi SSE 3.5 mph - N/A   Clear
4:53 AM 78.1 °F - 75.9 °F 93% 29.82 in 10.0 mi SE 5.8 mph - N/A   Scattered Clouds
5:53 AM 78.1 °F - 75.9 °F 93% 29.82 in 10.0 mi SE 5.8 mph - N/A   Clear
6:53 AM 78.1 °F - 75.9 °F 93% 29.84 in 10.0 mi ESE 5.8 mph - N/A   Clear
7:53 AM 78.1 °F - 75.9 °F 93% 29.86 in 10.0 mi SE 6.9 mph - N/A   Mostly Cloudy
8:53 AM 81.0 °F 87.9 °F 77.0 °F 88% 29.86 in 10.0 mi SSE 9.2 mph - N/A   Partly Cloudy
9:21 AM 80.6 °F 87.1 °F 77.0 °F 89% 29.88 in 10.0 mi SSE 11.5 mph - N/A   Mostly Cloudy
9:35 AM 82.4 °F 89.5 °F 75.2 °F 79% 29.88 in 10.0 mi SSE 12.7 mph - N/A   Scattered Clouds
9:53 AM 82.9 °F 90.2 °F 75.0 °F 77% 29.88 in 10.0 mi SSE 12.7 mph - N/A   Partly Cloudy
10:53 AM 87.1 °F 96.3 °F 75.0 °F 67% 29.88 in 10.0 mi SSE 13.8 mph 18.4 mph N/A   Clear
11:53 AM 89.1 °F 99.1 °F 75.0 °F 63% 29.87 in 10.0 mi South 10.4 mph - N/A   Clear
12:53 PM 91.0 °F 100.4 °F 73.9 °F 57% 29.86 in 10.0 mi South 11.5 mph - N/A   Clear
1:53 PM 91.9 °F 100.7 °F 73.0 °F 54% 29.83 in 10.0 mi SSE 13.8 mph 17.3 mph N/A   Scattered Clouds
2:53 PM 93.0 °F 101.9 °F 73.0 °F 52% 29.81 in 10.0 mi SE 11.5 mph 19.6 mph N/A   Scattered Clouds
3:53 PM 91.9 °F 99.5 °F 72.0 °F 52% 29.79 in 10.0 mi SE 11.5 mph - N/A   Partly Cloudy
4:53 PM 93.9 °F 105.4 °F 75.0 °F 54% 29.78 in 10.0 mi ESE 15.0 mph 19.6 mph N/A   Mostly Cloudy
5:53 PM 91.0 °F 100.4 °F 73.9 °F 57% 29.78 in 10.0 mi SE 13.8 mph - N/A   Clear
6:53 PM 88.0 °F 95.6 °F 73.0 °F 61% 29.80 in 10.0 mi SE 12.7 mph - N/A   Clear
7:53 PM 84.9 °F 92.1 °F 73.9 °F 69% 29.82 in 10.0 mi SE 12.7 mph - N/A   Clear
8:53 PM 82.9 °F 89.4 °F 73.9 °F 74% 29.86 in 10.0 mi SE 13.8 mph - N/A   Clear
9:53 PM 82.0 °F 88.6 °F 75.0 °F 79% 29.87 in 10.0 mi SE 9.2 mph - N/A   Clear
10:53 PM 80.1 °F 85.1 °F 75.0 °F 85% 29.89 in 10.0 mi ESE 10.4 mph - N/A   Clear
11:33 PM 80.6 °F 86.2 °F 75.2 °F 84% 29.90 in 10.0 mi SE 9.2 mph - N/A   Mostly Cloudy
11:51 PM 80.6 °F 86.2 °F 75.2 °F 84% 29.89 in 10.0 mi SE 10.4 mph - N/A   Scattered Clouds
11:53 PM 80.1 °F 85.4 °F 75.9 °F 87% 29.89 in 10.0 mi SE 10.4 mph - N/A   Scattered Clouds